Weather History for Lafayette, IN

Change the Weather History Date:

Thursday, July 10, 2014

  Actual Average Record
Temperature  
Mean Temperature 67 °F 75 °F  
Max Temperature 78 °F 85 °F 100 °F (1966)
Min Temperature 56 °F 64 °F 50 °F (1996)
Degree Days  
Heating Degree Days 0 0  
Month to date heating degree days 1 0  
Since 1 June heating degree days 7 22  
Since 1 July heating degree days 1 0  
Cooling Degree Days 2 10  
Month to date cooling degree days 50 100  
Year to date cooling degree days 372 394  
Since 1 June cooling degree days 275 317  
Growing Degree Days 18 (Base 50)    
Moisture  
Dew Point 55 °F    
Average Humidity 66    
Maximum Humidity 93    
Minimum Humidity 39    
Precipitation  
Precipitation 0.00 in 0.14 in 2.20 in (1993)
Month to date precipitation 1.31 1.38  
Year to date precipitation 18.61 19.50  
Sea Level Pressure  
Sea Level Pressure 30.13 in    
Wind  
Wind Speed 5 mph (NNE)    
Max Wind Speed 13 mph    
Max Gust Speed 17 mph    
Visibility 10 miles    
Events      
T = Trace of Precipitation, MM = Missing Value Source: NWS Daily Summary

Daily Weather History Graph

Daily Weather History Graph

Search for Another Location

Airport:

Trip Planner

Search our weather history database for the weather conditions in past years. The results will help you decide how hot, cold, wet, or windy it might be!

Date:

Astronomy

Jul. 10, 2014 Rise Set
Actual Time 6:26 AM EDT 9:19 PM EDT
Civil Twilight 5:54 AM EDT 9:51 PM EDT
Nautical Twilight 5:13 AM EDT 10:32 PM EDT
Astronomical Twilight 4:25 AM EDT 11:19 PM EDT
Moon 7:31 PM EDT (7/10) 4:37 AM EDT (7/10)
Length of Visible Light 15h 57m
Length of Day
14h 52m
Waxing Gibbous, 95% of the Moon is Illuminated
Jul 10
Waxing Gibbous
Jul 12
Full
Jul 18
Last Quarter
Jul 26
New
Aug 3
First Quarter

Hourly Weather History & Observations

Time (EDT) Temp. Dew Point Humidity Pressure Visibility Wind Dir Wind Speed Gust Speed Precip Events Conditions
12:54 AM 64.9 °F 57.9 °F 78% 30.04 in 10.0 mi NNE 6.9 mph - N/A   Clear
1:54 AM 64.0 °F 57.9 °F 80% 30.05 in 10.0 mi NNE 4.6 mph - N/A   Clear
2:54 AM 63.0 °F 57.0 °F 81% 30.06 in 10.0 mi NNE 4.6 mph - N/A   Clear
4:54 AM 57.0 °F 55.0 °F 93% 30.07 in 10.0 mi Calm Calm - N/A   Clear
5:54 AM 59.0 °F 55.9 °F 90% 30.09 in 10.0 mi North 5.8 mph - N/A   Clear
6:54 AM 60.1 °F 55.0 °F 83% 30.10 in 10.0 mi NNE 3.5 mph - N/A   Clear
7:54 AM 63.0 °F 57.0 °F 81% 30.12 in 10.0 mi NE 3.5 mph - N/A   Clear
8:54 AM 64.9 °F 55.9 °F 73% 30.14 in 10.0 mi ENE 5.8 mph - N/A   Clear
9:54 AM 69.1 °F 55.9 °F 63% 30.15 in 10.0 mi NNE 8.1 mph - N/A   Clear
10:54 AM 72.0 °F 54.0 °F 53% 30.16 in 10.0 mi NE 6.9 mph - N/A   Clear
11:54 AM 73.9 °F 51.1 °F 45% 30.17 in 10.0 mi ENE 8.1 mph - N/A   Clear
12:54 PM 73.9 °F 53.1 °F 48% 30.18 in 10.0 mi NNE 9.2 mph - N/A   Clear
1:54 PM 75.9 °F 52.0 °F 43% 30.17 in 10.0 mi NNW 6.9 mph - N/A   Scattered Clouds
2:54 PM 78.1 °F 52.0 °F 40% 30.15 in 10.0 mi NNW 5.8 mph - N/A   Clear
3:54 PM 77.0 °F 51.1 °F 40% 30.14 in 10.0 mi NNW 6.9 mph - N/A   Clear
4:54 PM 78.1 °F 54.0 °F 43% 30.13 in 10.0 mi North 6.9 mph 17.3 mph N/A   Partly Cloudy
5:54 PM 77.0 °F 52.0 °F 42% 30.13 in 10.0 mi NE 9.2 mph - N/A   Clear
6:54 PM 75.9 °F 53.1 °F 45% 30.13 in 10.0 mi ENE 8.1 mph - N/A   Clear
7:54 PM 75.0 °F 53.1 °F 46% 30.13 in 10.0 mi NNE 5.8 mph - N/A   Clear
8:54 PM 73.0 °F 54.0 °F 51% 30.13 in 10.0 mi NNE 3.5 mph - N/A   Clear
9:54 PM 64.9 °F 55.9 °F 73% 30.14 in 10.0 mi North 3.5 mph - N/A   Clear
10:54 PM 63.0 °F 55.0 °F 75% 30.15 in 10.0 mi Calm Calm - N/A   Clear
11:54 PM 60.1 °F 57.0 °F 90% 30.17 in 10.0 mi Calm Calm - N/A   Clear